Vertical_Velocity
1 0 1 2 1 -0 1 -0 -1 -0 -1 1 6 3 -0 0 2 1 1 0 -0 -1 0 -1 -1 1 -2 -1 -2 -1 -1 -1 -1 -1 -1 -1 -0 -1 0 -0 -0 1 1
-1 3 1 1 1 -0 1 -0 -1 -1 -0 -2 7 1 1 -0 0 1 1 0 1 -1 -0 -3 -0 -1 0 0 0 -1 -1 -1 -1 -0 0 -1 -1 -1 -1 -1 -0 -0 -2
-0 3 2 3 -1 -2 0 1 1 1 2 -1 6 -0 -1 3 -0 -1 0 -0 -2 -0 -1 -4 -1 -2 -1 -1 0 1 -0 1 -1 0 1 -0 -2 -1 -1 -1 0 -1 1
2 3 1 3 -1 -1 -1 -2 1 -1 1 0 0 4 -4 2 -1 0 -0 1 0 -0 -0 -2 -1 -1 -2 -1 -1 -2 -2 -1 -1 -1 -1 -2 -0 -1 -1 -2 -1 -0 1
4 5 1 3 1 1 -0 1 1 -0 -0 2 -1 2 2 -3 1 1 -1 1 0 0 -1 -1 -1 0 -0 -0 -0 -2 -2 -2 -3 -1 -1 -1 -1 -1 -2 -1 1 -4 0
2 5 2 2 4 3 1 -1 -2 -1 2 1 -1 -1 2 -0 -0 2 -2 2 -0 -1 -1 -0 -1 3 -2 -1 0 -0 -2 -2 -2 -0 1 1 0 -1 -1 0 2 0 -1
-0 0 5 -0 4 5 2 -4 -4 -0 3 5 -1 -1 0 1 2 -0 2 -4 1 1 -0 -1 -2 1 -0 1 -1 -0 -1 -1 -1 -1 -1 0 0 1 -0 -1 -1 1 1
1 3 5 2 1 1 4 1 0 1 2 2 1 -1 3 1 1 0 0 1 -2 -2 -0 -1 -2 -1 -1 1 -0 -2 -1 -1 -1 -1 -1 -1 -1 -1 -1 -1 -1 -0 -0
2 2 5 -1 1 -0 3 0 0 2 3 -0 -2 4 2 5 -1 1 2 2 0 1 0 1 2 -2 -2 1 -1 -0 -1 -1 -1 -1 -1 -1 -1 -1 -0 -2 -2 -0 -2
6 2 -4 0 -1 1 -1 3 -2 3 2 1 1 1 2 1 5 2 1 2 2 0 0 -0 -2 -0 -4 -0 1 -1 -2 -2 -0 -0 -1 -1 -1 -3 1 -0 0 -0 0
6 4 1 1 2 2 2 -1 2 6 1 5 -0 1 1 2 5 3 1 3 2 1 0 -1 -1 2 -1 -2 0 -1 -2 -2 -4 -2 -1 -0 -1 -1 -1 0 -0 1 -1
5 3 1 2 3 -0 4 1 -1 -0 1 1 -1 2 2 4 -0 -1 -2 2 2 1 3 4 0 2 -1 1 -2 0 -2 -4 -1 -3 -2 -1 -1 -2 1 1 0 0 -3
1 9 6 8 8 2 2 -2 1 -1 -0 2 -1 0 2 2 -0 0 -0 -1 1 2 1 6 2 1 -0 0 0 -2 -1 -2 -2 -1 -2 -3 -1 -0 -0 0 -2 -1 -1
10 -9 3 7 5 2 -1 -2 -1 0 -0 1 1 1 -1 0 1 2 -2 2 1 1 1 1 1 -2 -3 -2 -1 -1 1 5 -3 -4 -3 -2 -2 -0 -1 -1 -0 -4 2
7 6 -2 -3 2 -1 2 -0 -4 3 -1 -2 2 1 1 2 1 3 -0 2 1 1 0 1 1 -3 -8 -6 2 2 -1 -3 -4 -4 -3 -3 -3 -3 -1 -0 1 -2 -4
-7 -1 5 -1 2 6 0 -0 1 2 -1 0 1 1 1 -0 0 0 1 1 1 1 1 -1 1 -0 -2 -5 -1 -0 -1 -2 -1 -2 0 -1 2 -2 -2 1 -0 -4 2
-4 -4 -6 1 -5 1 1 -0 2 0 1 1 1 1 -2 -1 0 1 2 2 2 2 3 -4 -3 -0 -4 -1 -1 0 1 1 1 0 0 -4 -1 -3 -4 -2 -2 -3 -1
-8 -12 -6 -0 3 1 -2 -0 1 5 2 -1 1 1 0 3 0 0 0 2 2 -5 -2 5 -4 -2 -3 0 2 -1 -0 1 -2 1 -1 -1 -1 -3 -5 -2 -7 -5 -3
-4 -3 1 0 6 -7 -1 -1 -2 -2 1 -1 -1 -2 -2 -5 5 -3 -1 0 2 2 3 1 1 -1 -1 1 1 0 -2 0 -2 1 1 -0 0 -4 -2 -4 -4 -4 -2
1 3 5 -1 -1 -3 -1 -2 -5 -1 2 -2 1 -2 1 -1 1 -1 2 0 4 6 1 -1 -5 -1 -0 0 0 -1 -3 3 -3 -1 -1 -1 0 -2 -3 -1 -5 -8 -2
1 5 1 6 3 4 4 4 2 -3 -2 1 2 2 -0 4 2 8 10 9 11 0 -1 -0 -1 -2 -3 -6 -2 -3 -1 -0 -5 -0 2 -8 -2 -7 -8 -6 -6 -4 -3
1 -0 5 -0 1 1 7 4 2 3 6 2 7 2 3 7 8 4 3 2 2 0 0 -2 -0 -2 -4 1 -1 -1 -3 2 7 -13 -1 7 -4 3 -2 -3 -2 -2 -6
4 15 3 1 3 5 2 6 2 2 4 5 5 1 9 4 2 4 1 2 0 -2 -2 -1 -1 2 0 2 2 -0 -2 -0 -1 -4 3 15 -1 7 -1 -0 -4 -3 -4
2 2 4 4 -0 -5 2 2 -5 5 2 9 -3 7 7 -0 2 3 2 -1 2 1 1 -1 1 4 2 -3 0 -2 -2 1 -1 -5 -7 6 -1 6 5 -5 -5 -5 -6
4 1 1 11 6 4 2 2 2 -2 -2 2 4 0 4 5 6 6 2 -2 0 3 1 2 3 -2 1 -6 0 -1 -5 -0 3 5 -9 -5 -4 3 0 0 -5 -9 0
-2 -1 5 -6 3 2 7 11 1 9 2 1 -6 2 10 4 5 -0 0 -0 -2 -1 2 8 5 -5 -3 0 -2 -1 3 2 -5 10 -15 4 0 -12 8 8 3 1 7
Height
5805 5811 5816 5821 5825 5829 5833 5836 5840 5843 5846 5848 5851 5851 5853 5855 5856 5857 5857 5858 5858 5858 5858 5858 5857 5856 5855 5854 5852 5850 5848 5846 5844 5843 5840 5839 5836 5833 5831 5829 5825 5822 5819
5797 5803 5808 5814 5818 5823 5828 5831 5835 5839 5842 5844 5847 5848 5849 5852 5853 5853 5854 5854 5854 5855 5855 5855 5854 5853 5851 5849 5848 5846 5844 5842 5840 5837 5834 5832 5830 5828 5825 5822 5820 5817 5815
5789 5796 5801 5807 5811 5816 5822 5826 5830 5834 5837 5840 5842 5844 5844 5847 5848 5849 5850 5850 5850 5851 5851 5851 5850 5849 5847 5844 5842 5841 5839 5837 5834 5831 5827 5826 5824 5822 5820 5817 5814 5811 5809
5782 5788 5793 5799 5803 5809 5815 5820 5824 5828 5831 5833 5837 5839 5840 5841 5843 5844 5845 5846 5846 5846 5847 5846 5845 5844 5842 5840 5838 5836 5833 5830 5827 5824 5821 5819 5817 5815 5813 5810 5808 5804 5802
5773 5780 5785 5791 5796 5801 5807 5813 5817 5821 5824 5827 5830 5833 5835 5836 5838 5840 5841 5842 5842 5842 5842 5841 5840 5838 5837 5835 5833 5831 5828 5825 5822 5819 5816 5813 5811 5809 5807 5804 5800 5796 5793
5763 5770 5776 5782 5789 5794 5799 5805 5809 5813 5817 5821 5823 5826 5829 5830 5832 5834 5835 5836 5836 5837 5836 5836 5834 5832 5831 5829 5827 5824 5822 5820 5816 5814 5811 5808 5806 5803 5800 5797 5794 5791 5787
5750 5758 5766 5772 5779 5786 5791 5796 5800 5805 5810 5813 5816 5819 5822 5825 5826 5827 5828 5829 5830 5830 5830 5830 5828 5827 5825 5823 5820 5818 5815 5813 5810 5807 5804 5801 5799 5796 5792 5789 5786 5784 5780
5739 5747 5755 5762 5769 5776 5782 5787 5792 5797 5802 5806 5808 5811 5815 5818 5820 5820 5822 5823 5823 5823 5824 5823 5822 5820 5817 5816 5814 5811 5809 5806 5803 5800 5797 5795 5791 5787 5785 5781 5778 5774 5771
5730 5738 5745 5753 5759 5766 5772 5777 5783 5789 5794 5797 5800 5805 5808 5811 5811 5813 5814 5816 5816 5816 5816 5816 5815 5813 5811 5808 5806 5804 5801 5797 5794 5791 5789 5786 5783 5779 5776 5773 5770 5766 5762
5720 5729 5736 5744 5751 5757 5763 5769 5774 5780 5785 5789 5792 5796 5799 5802 5803 5805 5807 5807 5808 5808 5807 5806 5806 5804 5803 5800 5798 5795 5792 5788 5785 5781 5778 5776 5772 5769 5765 5762 5758 5755 5752
5711 5719 5726 5735 5742 5748 5754 5761 5767 5772 5777 5781 5785 5788 5790 5793 5795 5796 5797 5798 5799 5798 5798 5797 5795 5794 5793 5790 5789 5785 5782 5778 5775 5771 5767 5764 5761 5757 5754 5751 5747 5743 5740
5699 5709 5716 5725 5733 5739 5744 5750 5757 5762 5767 5771 5774 5778 5781 5784 5786 5788 5788 5789 5790 5789 5789 5788 5786 5784 5782 5781 5778 5775 5771 5767 5763 5759 5755 5753 5749 5746 5742 5738 5734 5730 5726
5690 5702 5708 5717 5723 5729 5734 5741 5746 5751 5755 5760 5763 5766 5770 5774 5775 5777 5778 5778 5780 5779 5778 5778 5775 5774 5771 5770 5768 5763 5760 5756 5752 5747 5743 5739 5736 5732 5729 5725 5721 5718 5713
5676 5683 5697 5706 5713 5718 5724 5729 5735 5740 5743 5748 5752 5756 5759 5761 5764 5767 5767 5768 5768 5767 5766 5766 5764 5762 5759 5757 5755 5751 5747 5742 5737 5733 5729 5725 5721 5718 5716 5712 5707 5703 5698
5668 5675 5683 5693 5701 5708 5713 5718 5723 5729 5734 5737 5742 5745 5748 5751 5753 5755 5756 5756 5755 5754 5754 5754 5753 5749 5746 5745 5742 5737 5733 5728 5724 5720 5716 5712 5709 5706 5702 5698 5694 5689 5685
5660 5666 5674 5681 5690 5698 5703 5709 5714 5719 5723 5726 5730 5733 5736 5739 5741 5743 5743 5743 5742 5742 5742 5741 5739 5737 5734 5731 5727 5722 5718 5714 5709 5705 5702 5699 5696 5693 5689 5685 5680 5677 5672
5654 5658 5663 5672 5678 5686 5692 5697 5702 5707 5713 5717 5720 5724 5727 5729 5730 5730 5730 5730 5731 5730 5729 5726 5724 5721 5718 5716 5711 5707 5703 5700 5697 5692 5688 5686 5682 5678 5674 5670 5664 5659 5653
5643 5653 5657 5662 5669 5679 5679 5683 5689 5695 5700 5706 5709 5712 5715 5717 5718 5719 5718 5717 5715 5716 5714 5712 5709 5709 5704 5700 5697 5693 5690 5685 5682 5679 5676 5671 5666 5661 5657 5651 5646 5640 5633
5635 5641 5647 5654 5662 5666 5667 5673 5680 5685 5689 5693 5697 5700 5702 5706 5705 5705 5703 5703 5703 5701 5699 5697 5694 5689 5688 5685 5682 5679 5676 5672 5669 5666 5660 5656 5652 5644 5640 5634 5626 5620 5615
5627 5631 5638 5645 5650 5655 5658 5663 5670 5672 5677 5680 5682 5686 5688 5690 5690 5691 5690 5690 5690 5689 5685 5682 5680 5678 5674 5671 5668 5666 5663 5659 5654 5651 5647 5643 5637 5629 5621 5615 5609 5604 5597
5619 5621 5627 5633 5638 5643 5647 5653 5658 5662 5664 5667 5670 5673 5676 5677 5679 5679 5679 5679 5678 5675 5673 5670 5667 5663 5661 5659 5657 5653 5651 5647 5641 5639 5634 5624 5621 5613 5606 5598 5591 5584 5577
5608 5615 5619 5625 5629 5632 5637 5641 5646 5649 5652 5656 5658 5661 5664 5666 5665 5664 5664 5663 5661 5659 5658 5655 5652 5651 5649 5646 5644 5641 5638 5634 5627 5622 5621 5610 5605 5599 5591 5583 5574 5565 5556
5595 5600 5606 5612 5615 5621 5625 5629 5633 5637 5641 5645 5648 5650 5652 5653 5653 5652 5651 5650 5647 5645 5644 5643 5640 5639 5637 5635 5632 5628 5624 5619 5613 5607 5604 5599 5591 5582 5572 5562 5553 5544 5535
5581 5587 5593 5600 5605 5610 5615 5618 5623 5625 5630 5633 5636 5638 5639 5640 5640 5640 5638 5635 5634 5632 5631 5631 5630 5628 5625 5622 5619 5614 5610 5605 5598 5590 5587 5583 5572 5565 5555 5542 5532 5522 5514
5571 5575 5579 5585 5591 5596 5601 5606 5610 5615 5618 5621 5623 5624 5625 5627 5626 5625 5624 5623 5621 5620 5618 5618 5616 5613 5610 5607 5604 5600 5595 5590 5585 5576 5568 5564 5555 5549 5539 5524 5512 5500 5488
5562 5565 5567 5571 5579 5585 5589 5594 5599 5603 5605 5607 5608 5611 5611 5612 5611 5612 5612 5611 5610 5609 5607 5605 5603 5599 5597 5594 5589 5583 5579 5575 5569 5562 5551 5549 5536 5527 5529 5512 5495 5481 5470